Regional Weather Roundup
Issued by NWS Memphis, TN

Home | Current Version | Previous Version | Text Only | Print | Product List | Glossary On
Versions: 1 2 3 4 5 6 7 8 9 10 11 12 13 14 15 16 17 18 19 20 21 22 23 24 25 26 27 28 29 30 31 32 33 34 35 36 37 38 39 40 41 42 43 44 45 46 47 48 49 50
000
ASUS44 KMEG 020510
RWRMEG
MEMPHIS CWA HOURLY WEATHER ROUNDUP
NATIONAL WEATHER SERVICE MEMPHIS TN
1200 AM CDT THU OCT 02 2014

...WEST TENNESSEE...

CITY           SKY/WX    TMP DP  RH WIND       PRES   REMARKS
MEMPHIS INTL   CLEAR     77  62  59 SE9       29.91S
NWS MEMPHIS      N/A    N/A N/A N/A MISG        N/A
JACKSON        CLEAR     68  61  78 SE5       29.93S
LEXINGTON      PTCLDY    63  61  94 CALM      29.94S
SAVANNAH       CLEAR     64  64 100 CALM      29.96S
DYERSBURG      CLEAR     73  55  53 S5        29.92F
UNION CITY     PTCLDY    68  63  83 SE3       29.91S
PARIS          CLEAR     66  57  72 SE5       29.94F
HUNTINGDON     CLEAR     65  60  83 CALM      29.93F


...EASTERN ARKANSAS...

CITY           SKY/WX    TMP DP  RH WIND       PRES   REMARKS
JONESBORO      MOCLDY    72  67  84 S5        29.88S
WEST MEMPHIS   CLEAR     68  66  93 SE7       29.88F
BATESVILLE     CLEAR    N/A N/A N/A SE5       29.86F
NEWPORT        CLEAR     74  67  78 S14       29.88S
WALNUT RIDGE   CLEAR     70  64  83 S7        29.87S
BLYTHEVILLE    CLEAR     73  65  75 S6        29.90S
STUTTGART      CLEAR    N/A N/A N/A SE8       29.88S
PINE BLUFF     CLEAR     73  67  81 S7        29.87S
MONTICELLO     CLEAR     76  68  76 S3        29.88F


...NORTH MISSISSIPPI...

CITY           SKY/WX    TMP DP  RH WIND       PRES   REMARKS
TUPELO         CLEAR     70  62  76 S3        29.94S
OXFORD         CLEAR     68  61  77 SE7       29.95S
OLIVE BRANCH   CLEAR     72  64  78 SE7       29.92S
TUNICA         CLEAR     72  64  78 S8        29.91R
CLARKSDALE     CLOUDY    77  66  69 SE9       29.91S
CORINTH          N/A     68  63  83 S5        29.94S
GRENADA        CLEAR     68  64  88 CALM      29.93S
GREENWOOD      CLEAR     73  65  75 S6        29.92S
COLUMBUS       CLEAR     69  62  76 SE6       29.95S
STARKVILLE     FAIR      70  63  78 SE3       29.95S
GOLDEN TRIANGL CLEAR     72  59  64 SE7       29.95S


...SOUTHEAST MISSOURI...

CITY           SKY/WX    TMP DP  RH WIND       PRES   REMARKS
WEST PLAINS    CLEAR     71  67  87 S6        29.89F
POPLAR BLUFF   PTCLDY    68  62  81 CALM      29.87S
CAPE GIRARDEAU MOCLDY    74  63  68 S7        29.89S


...NORTHWEST ALABAMA...

CITY           SKY/WX    TMP DP  RH WIND       PRES   REMARKS
MUSCLE SHOALS  CLEAR     64  58  80 SE5       29.98S


...MIDDLE TENNESSEE...

CITY           SKY/WX    TMP DP  RH WIND       PRES   REMARKS
NASHVILLE      CLEAR     68  59  73 S3        29.97F
CLARKSVILLE    CLEAR     66  60  81 SE3       29.95S
COLUMBIA       CLEAR     61  61 100 CALM      29.96S
LEWISBURG      CLEAR     60  58  93 CALM      29.98S


...WESTERN KENTUCKY...

CITY           SKY/WX    TMP DP  RH WIND       PRES   REMARKS
PADUCAH        PTCLDY    71  60  68 S3        29.91R
FORT CAMPBELL  CLEAR     71  61  71 SE8       29.95S


...CENTRAL ARKANSAS...

CITY           SKY/WX    TMP DP  RH WIND       PRES   REMARKS
LITTLE ROCK    CLEAR     74  68  81 SE6       29.86S


SKY/WX REPORTED AS FAIR MEANS FEW OR NO CLOUDS BELOW
12 THOUSAND FEET.



USA.gov is the U.S. government's official web portal to all federal, state and local government web resources and services.